Flag for U.S.A. Weather past 2 weeks in San Antonio, Texas, U.S.A.

74 °F

Mostly cloudy.

Feels Like: 73 °F
Forecast: 55 / 78 °F
Wind: 7 mph from South

Location: San Antonio International Airport

Current Time: Nov 27, 2015 at 2:59:26 AM

Latest Report: Nov 27, 2015 at 1:51 AM

Visibility: 10 mi

Pressure: 30.04 "Hg

Humidity: 88%

Dew point: 70 °F

Location of San AntonioLocation

Historic Weather in San Antonio — Graph


San Antonio temperature yesterday

Maximum temperature yesterday: 79 °F (at 1:51 PM)
Minimum temperature yesterday: 67 °F (at 3:51 AM)
Average temperature yesterday: 72 °F

Past Weeks' High & Low Weather Summary

High79 °F (Nov 19, 2:51 PM)97% (Nov 25, 3:51 PM)30.35 "Hg (Nov 25, 3:51 PM)
Low34 °F (Nov 23, 4:51 AM)20% (Nov 12, 1:51 AM)29.52 "Hg (Nov 17, 4:51 AM)
Average62 °F64%30.05 "Hg
* Reported Nov 12 1:51 AM — Nov 27 1:51 AM, San Antonio, Weather by CustomWeather, © 2015

Note: Actual official high and low records may vary slightly from our data, if they occured in-between our weather recording intervals... More about our weather records


San Antonio weather history for previous 24 hours

Time TempWeatherWind HumidityBarometerVisibility
1:51 AM
Fri, Nov 27
74 °FMostly cloudy.7 mph88%30.04 "Hg10 mi
12:51 AM74 °FMostly cloudy.13 mph88%30.04 "Hg10 mi
11:51 PM
Thu, Nov 26
74 °FLight rain. Mostly cloudy.13 mph88%30.06 "Hg7 mi
10:51 PM74 °FMostly cloudy.12 mph88%30.06 "Hg10 mi
9:51 PM73 °FLight rain. Mostly cloudy.13 mph90%30.04 "Hg8 mi
8:51 PM73 °FMostly cloudy.13 mph88%30.05 "Hg10 mi
7:51 PM73 °FMostly cloudy.13 mph88%30.04 "Hg8 mi
6:51 PM73 °FMostly cloudy.16 mph88%30.02 "Hg7 mi
5:51 PM74 °FMostly cloudy.14 mph88%30.01 "Hg7 mi
4:51 PM74 °FLight rain. Mostly cloudy.17 mph85%30.00 "Hg4 mi
3:51 PM77 °FMostly cloudy.17 mph79%29.98 "Hg10 mi
2:51 PM77 °FCloudy.13 mph79%30.00 "Hg10 mi
1:51 PM79 °FLight rain. Mostly cloudy.17 mph69%30.01 "Hg10 mi
12:51 PM77 °FCloudy.12 mph77%30.03 "Hg10 mi
11:51 AM75 °FCloudy.12 mph82%30.07 "Hg10 mi
10:51 AM74 °FMostly cloudy.12 mph85%30.09 "Hg10 mi
9:51 AM73 °FMostly cloudy.13 mph88%30.09 "Hg10 mi
8:51 AM71 °FFog.8 mph90%30.08 "Hg5 mi
7:51 AM70 °FFog.10 mph90%30.06 "Hg3 mi
6:51 AM69 °FFog.8 mph90%30.05 "Hg6 mi
5:51 AM68 °FLight rain. Mostly cloudy.6 mph90%30.04 "Hg8 mi
4:51 AM68 °FLight rain. Fog.3 mph93%30.04 "Hg6 mi
3:51 AM67 °FLight rain. Overcast.6 mph90%30.04 "Hg10 mi
2:51 AM68 °FLight rain. Mostly cloudy.3 mph87%30.05 "Hg8 mi
Weather by CustomWeather, © 2015

See weather overviewHow to use our weather pages